Location: 相模原市立博物館
(35.5593°N, 139.3931°E)
Time: 12:27:19
(UTC+09:00)

Envisat - Pass Details

Date: 30 October 2021
Orbit: 764 x 766 km, 98.2° (Epoch: 30 November)

Event Time Altitude Azimuth Distance (km) Brightness Sun altitude
Rises 04:35:49 0° 14° (NNE) 3,236 6.4 -18.1°
Reaches altitude 10° 04:38:09 10° 17° (NNE) 2,306 5.6 -17.6°
Maximum altitude 04:43:13 73° 102° (ESE) 801 3.2 -16.6°
Drops below altitude 10° 04:48:15 10° 187° (S) 2,290 5.5 -15.5°
Sets 04:50:33 0° 189° (S) 3,212 6.2 -15.1°
